Grand Rapids, MI

5:11 AM EDT on September 16, 2019 (GMT -0400)
Gerald R. Ford International

Weather History for KGRR - July, 2019

Change the Weather History Date:

Thursday, July 11, 2019

  Actual Average Record
Temperature  
Mean Temperature 72 °F 73 °F  
Max Temperature 83 °F 83 °F 99 °F (1936)
Min Temperature 60 °F 62 °F 43 °F (1945)
Degree Days  
Heating Degree Days 0 0  
Month to date heating degree days 0 0  
Since 1 June heating degree days 49 45  
Since 1 July heating degree days 0 0  
Cooling Degree Days 7 8  
Month to date cooling degree days 128 85  
Year to date cooling degree days 245 277  
Since 1 June cooling degree days 239 230  
Growing Degree Days 23 (Base 50)    
Moisture  
Dew Point 60 °F    
Average Humidity 65    
Maximum Humidity 78    
Minimum Humidity 51    
Precipitation  
Precipitation 0.00 in 0.12 in 2.72 in (1922)
Month to date precipitation 1.96 1.31  
Year to date precipitation 24.89 18.66  
Snow  
Snow 0.00 in 0.00 in 0.00 in (2006)
Month to date snowfall 0.0 0.0  
Since 1 June snowfall 0.0 0.0  
Since 1 July snowfall 0.0 0.0  
Snow Depth 0.00 in    
Sea Level Pressure  
Sea Level Pressure 29.88 in    
Wind  
Wind Speed 9 mph (NW)    
Max Wind Speed 21 mph    
Max Gust Speed 27 mph    
Visibility 10 miles    
Events      
T = Trace of Precipitation, MM = Missing Value Source: NWS Daily Summary

Daily Weather History Graph

Daily Weather History Graph

Search for Another Location

Airport or City:

Astronomy

Jul. 11, 2019 Rise Set
Actual Time 6:13 AM EDT 9:21 PM EDT
Civil Twilight 5:39 AM EDT 9:55 PM EDT
Nautical Twilight 4:55 AM EDT 10:39 PM EDT
Astronomical Twilight 4:02 AM EDT 11:32 PM EDT
Moon 4:29 PM EDT (7/11) 2:28 AM EDT (7/11)
Length of Visible Light 16h 16m
Length of Day
15h 07m
Waxing Gibbous, 74% of the Moon is Illuminated
Jul 11
Waxing Gibbous
Jul 16
Full
Jul 24
Last Quarter
Jul 31
New
Aug 7
First Quarter

Hourly Weather History & Observations

Time (EDT) Temp. Heat Index Dew Point Humidity Pressure Visibility Wind Dir Wind Speed Gust Speed Precip Events Conditions
12:53 AM 78.1 °F - 61.0 °F 56% 29.85 in 10.0 mi WNW 10.4 mph - N/A   Clear
1:53 AM 75.9 °F - 60.1 °F 58% 29.85 in 10.0 mi WNW 6.9 mph - N/A   Partly Cloudy
2:53 AM 75.0 °F - 60.1 °F 60% 29.84 in 10.0 mi West 8.1 mph - N/A   Mostly Cloudy
3:53 AM 73.0 °F - 60.1 °F 64% 29.84 in 10.0 mi WNW 8.1 mph - N/A   Clear
4:53 AM 71.1 °F - 60.1 °F 68% 29.85 in 10.0 mi WNW 5.8 mph - N/A   Clear
5:53 AM 70.0 °F - 60.1 °F 71% 29.85 in 10.0 mi WNW 5.8 mph - N/A   Partly Cloudy
6:53 AM 69.1 °F - 61.0 °F 75% 29.85 in 10.0 mi WSW 5.8 mph - N/A   Partly Cloudy
7:53 AM 72.0 °F - 62.1 °F 71% 29.86 in 10.0 mi WNW 5.8 mph - N/A   Clear
8:53 AM 75.0 °F - 63.0 °F 66% 29.86 in 10.0 mi NW 5.8 mph - N/A   Clear
9:53 AM 77.0 °F - 63.0 °F 62% 29.87 in 10.0 mi NNW 8.1 mph - N/A   Partly Cloudy
10:53 AM 79.0 °F - 63.0 °F 58% 29.87 in 10.0 mi NW 8.1 mph - N/A   Scattered Clouds
11:53 AM 80.1 °F 81.5 °F 63.0 °F 56% 29.88 in 10.0 mi NW 9.2 mph - N/A   Mostly Cloudy
12:53 PM 78.1 °F - 63.0 °F 60% 29.88 in 10.0 mi WNW 8.1 mph - N/A   Scattered Clouds
1:53 PM 81.0 °F 82.2 °F 63.0 °F 54% 29.87 in 10.0 mi NW 9.2 mph - N/A   Scattered Clouds
2:53 PM 81.0 °F 81.9 °F 62.1 °F 52% 29.87 in 10.0 mi WNW 10.4 mph - N/A   Mostly Cloudy
3:53 PM 81.0 °F 82.2 °F 63.0 °F 54% 29.87 in 10.0 mi WNW 16.1 mph 23.0 mph N/A   Mostly Cloudy
4:53 PM 80.1 °F 81.1 °F 61.0 °F 52% 29.87 in 10.0 mi NW 17.3 mph 24.2 mph N/A   Scattered Clouds
5:53 PM 75.9 °F - 60.1 °F 58% 29.88 in 10.0 mi NNW 15.0 mph 24.2 mph N/A   Partly Cloudy
6:53 PM 73.0 °F - 57.9 °F 59% 29.89 in 10.0 mi NNW 15.0 mph - N/A   Partly Cloudy
7:53 PM 72.0 °F - 57.0 °F 59% 29.91 in 10.0 mi NNW 13.8 mph 24.2 mph N/A   Partly Cloudy
8:53 PM 69.1 °F - 55.9 °F 63% 29.92 in 10.0 mi North 9.2 mph - N/A   Partly Cloudy
9:53 PM 66.9 °F - 55.0 °F 66% 29.93 in 10.0 mi NNW 8.1 mph - N/A   Partly Cloudy
10:53 PM 64.0 °F - 53.1 °F 67% 29.95 in 10.0 mi North 6.9 mph - N/A   Partly Cloudy
11:53 PM 62.1 °F - 55.0 °F 78% 29.94 in 10.0 mi North 4.6 mph - N/A   Partly Cloudy